Orbital Elements at Epoch 2459200.5 (2020-Dec-17.0) TDB
Reference: JPL 15 (heliocentric ecliptic J2000)
Element | Value | Uncertainty (1-sigma) | Units |
e | .1128428375583794 | 5.5651e-08 | |
a | 2.710544488058521 | 1.814e-08 | au |
q | 2.404678956697773 | 1.5093e-07 | au |
i | 9.979792066980501 | 5.0216e-06 | deg |
node | 98.63597981125126 | 3.3739e-05 | deg |
peri | 97.44132887199871 | 4.211e-05 | deg |
M | 230.3060111790225 | 2.9783e-05 | deg |
tp | 2459787.719654479758 (2022-Jul-27.21965448) | 0.00013807 | TDB |
period | 1629.983606291242 4.46 | 1.6362e-05 4.48e-08 | d yr |
n | .220861117014005 | 2.2171e-09 | deg/d |
Q | 3.01641001941927 | 2.0186e-08 | au |
|
| | Orbit Determination Parameters
Additional Information
|